Location: Ottawa
(45.4167°N, 75.7000°W)
Time: 20:26:28
(UTC-05:00)

PCSat - Visible Passes

Search period start: 15 December 2018 00:00
Search period end: 25 December 2018 00:00
Orbit: 786 x 794 km, 67.1° (Epoch: 15 December)

Date Brightness Start Highest point End Pass type
(mag) Time Alt. Az. Time Alt. Az. Time Alt. Az.
15 Dec 11.6 04:05:03 22° NE 04:05:03 22° NE 04:06:54 10° NE visible
15 Dec 10.7 05:45:48 24° NW 05:45:48 24° NW 05:49:46 10° NNE visible
16 Dec 12.3 03:35:25 12° NE 03:35:25 12° NE 03:35:52 10° NE visible
16 Dec 10.9 05:16:10 24° N 05:16:10 24° N 05:19:01 10° NNE visible
17 Dec 11.4 04:46:25 20° N 04:46:25 20° N 04:48:12 10° NNE visible
17 Dec 11.5 06:27:08 11° NW 06:28:11 11° NNW 06:29:42 10° N visible
18 Dec 11.9 04:16:35 14° NNE 04:16:35 14° NNE 04:17:21 10° NNE visible
18 Dec 11.5 05:57:18 13° NNW 05:57:18 13° NNW 05:59:22 10° N visible
19 Dec 11.6 05:27:24 14° N 05:27:24 14° N 05:28:48 10° N visible
20 Dec 11.8 04:57:27 12° N 04:57:27 12° N 04:58:09 10° N visible
